Showing default

ICEYE-X63, 67372

Orbit data source: Space-Track

ICEYE-X63, 67372 is a Finnish payload satellite in SSO that was launched on Sun, 11 Jan 2026 UTC via an FALCON 9 launch vehicle from the Air Force Western Test Range (AFWTR). Payload-class satellites include a variety of spacecraft equipped with specific instruments for various scientific and technological missions. These include communications satellites like Starlink; space stations such as the ISS; scientific satellites like the Hubble; Earth observation satellites from companies like Planet Labs, Umbra, and HawkEye 360; GPS; miniature CubeSats for education and research; and military/defense satellites.

Loading next visibility...
Identifier
67372, 2026-004K
Orbit
SSO
Country
Flag of FIFI / FIN
Related business
Manufacturer
ICEYE
Mission
Operational Commercial Radar Imaging
Bus & Motor
ICEYE, Unknown motor
Mass
120 kg wet, 120 kg dry
Launch date (UTC)
2026-01-11 (8 months ago)
Launch vehicle
FALCON 9
Launch site
Air Force Western Test Range (AFWTR)
Object type
Payload
Rocket body
Debris
Shape & HBR
Box + 1 Pan, 2.4 m
Radar Cross Section
0.776 m², Medium (>0.1 m² and < 1m²)

Expand to show TLE details & history
Last TLE update: 6 hours ago

TLE from 6 hours ago
0 ICEYE-X63
1 67372U 26004K   26264.55481468  .00000504  00000-0  60171-4 0  9996
2 67372  97.8076 261.7297 0004642 153.1620 206.9838 14.88443713 37630
Epoch: 2026-09-21T13:18Z
TLE epoch observation values (Epoch: 2026-09-21T13:18:55.988Z)
Latitude
0.00001°
Longitude
61.56345°
Altitude
608.722 km
Speed
7.553 km/s
True Right ascension
17h 26m 55s
True Declination
0° 00' 00"
Sunlit
Object was in daylight at epoch
Visualization orbit readout
Latitude
Unknown
Longitude
Unknown
Altitude
Unknown
Speed
Unknown
Apparent Right ascension
Unknown
Apparent Declination
Unknown
Sunlit
N/A
Visualization observer readout
Local Sidereal Time
12:35:35
Azimuth
Unknown
Elevation
Unknown
Doppler factor
Unknown
Orbital elements
Apogee altitude
603.062 km
Perigee altitude
596.584 km
Semi-major axis
6,977.96 km
Eccentricity
0.00046
Inclination
97.8076°
RAAN
261.7297°
Arg. of periapsis
153.162°
True anomaly
206.95968°
Mean anomaly
206.9838°
Eccentric anomaly
206.97174°
Mean motion
3.72349 °/min
Orbital period
96.68 mins
BSTAR
0.000060171
Loading maneuver chart data...
Computing Atmospheric mass density...
Loading historical data...
Loading historical data...
Loading historical data...
Loading historical data...
Loading historical data...
Loading historical data...
Loading historical data...

Documentation

Showing up to 5 results
|